COSMOS 2251 DEB, 39585

Orbit data source: Space-Track

COSMOS 2251 DEB, 39585 is space debris in LEO originally from a launch on Wed, 16 Jun 1993 UTC launched from the Plesetsk Missile And Space Complex (PKMTR). The debris from Iridium 33, an American commercial communications satellite, has been tracked extensively since its accidental collision with the defunct Russian satellite Cosmos 2251 in 2009. This event, occurring at high speed in low Earth orbit (LEO), generated thousands of pieces of space debris, significantly increasing the risk of further collisions. The Iridium 33 debris cloud has impacted space traffic management and orbital debris mitigation strategies, making it a subject of ongoing study in space situational awareness.

Loading next visibility...
Identifier
39585, 1993-036BUQ
Orbit
LEO
Country
Flag of CISCIS
Related business
Manufacturer
Unknown
Mission
Spacecraft
Bus & Motor
Unknown
Mass
Unknown
Launch date (UTC)
1993-06-16 (33 years ago)
Launch vehicle
Unknown
Launch site
Plesetsk Missile And Space Complex (PKMTR)
Object type
Payload
Rocket body
Debris
Shape & HBR
Unknown shape, 0.1 m
Radar Cross Section
Small (<0.1 m²)

Expand to show TLE details & history
Last TLE update: 1 day ago

TLE from 1 day ago
0 COSMOS 2251 DEB
1 39585U 93036BUQ 26120.49870285  .00000962  00000-0  20507-3 0  9999
2 39585  74.0430  37.0890 0065912 124.1926 236.5511 14.59027285645444
Epoch: 2026-04-30T11:58Z
TLE epoch observation values (Epoch: 2026-04-30T11:58:07.926Z)
Latitude
-0°
Longitude
-0.88847°
Altitude
724.875 km
Speed
7.479 km/s
True Right ascension
02h 28m 21s
True Declination
0° 00' 00"
Sunlit
Object was in daylight at epoch
Visualization orbit readout
Latitude
Unknown
Longitude
Unknown
Altitude
Unknown
Speed
Unknown
Apparent Right ascension
Unknown
Apparent Declination
Unknown
Sunlit
N/A
Visualization observer readout
Local Sidereal Time
20:52:21
Azimuth
Unknown
Elevation
Unknown
Doppler factor
Unknown
Orbital elements
Apogee altitude
740.528 km
Perigee altitude
647.301 km
Semi-major axis
7,072.051 km
Eccentricity
0.00659
Inclination
74.043°
RAAN
37.089°
Arg. of periapsis
124.1926°
True anomaly
235.92376°
Mean anomaly
236.5511°
Eccentric anomaly
236.23714°
Mean motion
3.64943 °/min
Orbital period
98.65 mins
BSTAR
0.00020507
Loading maneuver chart data...
Computing Atmospheric mass density...
Loading historical data...
Loading historical data...
Loading historical data...
Loading historical data...
Loading historical data...
Loading historical data...
Loading historical data...

Documentation

Showing up to 5 results
|